Bangor, ME

2:56 AM EST on December 10, 2019 (GMT -0500)
Bangor International

Weather History for KBGR - October, 2019

Change the Weather History Date:

Sunday, October 20, 2019

  Actual Average Record
Temperature  
Mean Temperature 44 °F 46 °F  
Max Temperature 57 °F 56 °F 76 °F (1949)
Min Temperature 30 °F 35 °F 21 °F (2008)
Degree Days  
Heating Degree Days 21 19  
Month to date heating degree days 301 319  
Since 1 July heating degree days 515 591  
Cooling Degree Days 0 0  
Month to date cooling degree days 0 0  
Year to date cooling degree days 336 317  
Moisture  
Dew Point 37 °F    
Average Humidity 74    
Maximum Humidity 100    
Minimum Humidity 47    
Precipitation  
Precipitation 0.00 in 0.13 in 3.05 in (1927)
Month to date precipitation 2.74 2.71  
Year to date precipitation 41.76 32.79  
Snow  
Snow 0.00 in 0.10 in 0.00 in (2002)
Month to date snowfall 0.0 0.1  
Since 1 July snowfall 0.0 0.1  
Since 1 September snowfall 0.0 0.1  
Snow Depth 0.00 in    
Sea Level Pressure  
Sea Level Pressure 30.09 in    
Wind  
Wind Speed 1 mph (South)    
Max Wind Speed 8 mph    
Max Gust Speed 11 mph    
Visibility 10 miles    
Events      
T = Trace of Precipitation, MM = Missing Value Source: NWS Daily Summary

Daily Weather History Graph

Daily Weather History Graph

Search for Another Location

Airport or City:

Astronomy

Oct. 20, 2019 Rise Set
Actual Time 6:56 AM EDT 5:42 PM EDT
Civil Twilight 6:27 AM EDT 6:12 PM EDT
Nautical Twilight 5:53 AM EDT 6:46 PM EDT
Astronomical Twilight 5:19 AM EDT 7:20 PM EDT
Moon 10:37 PM EDT (10/20) 1:32 PM EDT (10/20)
Length of Visible Light 11h 45m
Length of Day
10h 45m
Waning Gibbous, 59% of the Moon is Illuminated
Oct 20
Waning Gibbous
Oct 21
Last Quarter
Oct 27
New
Nov 4
First Quarter
Nov 12
Full

Hourly Weather History & Observations

Time (EDT) Temp. Windchill Dew Point Humidity Pressure Visibility Wind Dir Wind Speed Gust Speed Precip Events Conditions
12:53 AM 36.0 °F - 33.1 °F 89% 30.05 in 10.0 mi Calm Calm - N/A   Clear
1:53 AM 36.0 °F - 32.0 °F 86% 30.06 in 10.0 mi Calm Calm - N/A   Clear
2:53 AM 34.0 °F - 32.0 °F 92% 30.06 in 10.0 mi Calm Calm - N/A   Clear
3:53 AM 34.0 °F - 33.1 °F 96% 30.08 in 10.0 mi Calm Calm - N/A   Clear
4:53 AM 32.0 °F - 30.9 °F 96% 30.09 in 10.0 mi Calm Calm - N/A   Clear
5:53 AM 34.0 °F - 32.0 °F 92% 30.11 in 10.0 mi Calm Calm - N/A   Clear
6:53 AM 30.9 °F - 30.0 °F 96% 30.11 in 10.0 mi Calm Calm - N/A   Scattered Clouds
7:53 AM 35.1 °F - 33.1 °F 92% 30.11 in 10.0 mi Calm Calm - N/A   Scattered Clouds
8:53 AM 41.0 °F - 36.0 °F 82% 30.12 in 10.0 mi Calm Calm - N/A   Scattered Clouds
9:53 AM 45.0 °F - 36.0 °F 71% 30.13 in 10.0 mi Calm Calm - N/A   Scattered Clouds
10:53 AM 50.0 °F - 37.9 °F 63% 30.12 in 10.0 mi Calm Calm - N/A   Mostly Cloudy
11:53 AM 51.1 °F - 36.0 °F 56% 30.11 in 10.0 mi Calm Calm - N/A   Mostly Cloudy
12:53 PM 55.0 °F - 37.0 °F 51% 30.10 in 10.0 mi Variable 3.5 mph - N/A   Mostly Cloudy
1:53 PM 55.9 °F - 37.0 °F 49% 30.09 in 10.0 mi South 5.8 mph - N/A   Mostly Cloudy
2:53 PM 57.0 °F - 37.0 °F 47% 30.07 in 10.0 mi Calm Calm - N/A   Mostly Cloudy
3:53 PM 55.9 °F - 39.0 °F 53% 30.08 in 10.0 mi South 9.2 mph - N/A   Mostly Cloudy
4:53 PM 54.0 °F - 39.0 °F 57% 30.08 in 10.0 mi SSW 6.9 mph - N/A   Mostly Cloudy
6:53 PM 48.9 °F - 41.0 °F 74% 30.08 in 10.0 mi South 3.5 mph - N/A   Overcast
7:53 PM 48.0 °F - 41.0 °F 77% 30.09 in 10.0 mi Calm Calm - N/A   Overcast
8:53 PM 46.0 °F 43.9 °F 42.1 °F 86% 30.08 in 10.0 mi ESE 4.6 mph - N/A   Overcast
9:53 PM 46.9 °F - 42.1 °F 83% 30.09 in 10.0 mi SSW 5.8 mph - N/A   Overcast
10:53 PM 46.9 °F - 43.0 °F 86% 30.10 in 10.0 mi SW 4.6 mph - N/A   Overcast
11:53 PM 46.0 °F - 43.0 °F 89% 30.09 in 10.0 mi Calm Calm - N/A   Mostly Cloudy